Weather History for URSS - February, 2013

Change the Weather History Date:

Saturday, February 9, 2013

  Actual Average Record
Temperature  
Mean Temperature 54 °F -  
Max Temperature 66 °F - - ()
Min Temperature 43 °F - - ()
Degree Days  
Heating Degree Days 10    
Growing Degree Days 4 (Base 50)    
Moisture  
Dew Point 35 °F    
Average Humidity 49    
Maximum Humidity 71    
Minimum Humidity 23    
Precipitation  
Precipitation 0.00 in - - ()
Sea Level Pressure  
Sea Level Pressure 29.97 in    
Wind  
Wind Speed 7 mph ()    
Max Wind Speed 16 mph    
Max Gust Speed 22 mph    
Visibility 6.2 miles    
Events      
T = Trace of Precipitation, MM = Missing Value Source: Averaged Metar Reports

Daily Weather History Graph

Daily Weather History Graph

Search for Another Location

Airport or City:

Trip Planner

Search our weather history database for the weather conditions in past years. The results will help you decide how hot, cold, wet, or windy it might be!

Date:

Astronomy

Feb. 09, 2013 Rise Set
Actual Time 8:26 AM MSK 6:42 PM MSK
Civil Twilight 7:57 AM MSK 7:12 PM MSK
Nautical Twilight 7:23 AM MSK 7:46 PM MSK
Astronomical Twilight 6:50 AM MSK 8:19 PM MSK
Moon 7:24 AM MSK (2/9) 6:00 PM MSK (2/9)
Length of Visible Light 11h 15m
Length of Day
10h 15m
Waning Crescent, 1% of the Moon is Illuminated
Feb 9
Waning Crescent
Feb 10
New
Feb 18
First Quarter
Feb 26
Full
Mar 5
Last Quarter

Hourly Weather History & Observations

Time (MSK) Temp. Windchill Dew Point Humidity Pressure Visibility Wind Dir Wind Speed Gust Speed Precip Events Conditions
12:00 AM 51.8 °F - 35.6 °F 54% 29.86 in 6.2 mi ENE 8.9 mph - N/A   Partly Cloudy
12:30 AM 51.8 °F - 35.6 °F 54% 29.86 in 6.2 mi ENE 8.9 mph 15.7 mph N/A   Partly Cloudy
1:00 AM 53 °F - 36 °F 42% 29.89 in 2 mi East 11.2 mph - -   Clear
1:00 AM 51.8 °F - 35.6 °F 54% 29.89 in 6.2 mi ENE 6.7 mph - N/A   Partly Cloudy
1:30 AM 51.8 °F - 35.6 °F 54% 29.89 in 6.2 mi East 8.9 mph 15.7 mph N/A   Partly Cloudy
2:00 AM 51.8 °F - 33.8 °F 50% 29.86 in 6.2 mi East 13.4 mph - N/A   Partly Cloudy
2:30 AM 50.0 °F - 35.6 °F 58% 29.86 in 6.2 mi ENE 11.2 mph - N/A   Clear
3:00 AM 50.0 °F - 35.6 °F 58% 29.89 in 6.2 mi ENE 8.9 mph - N/A   Clear
3:30 AM 50.0 °F - 33.8 °F 54% 29.89 in 6.2 mi East 8.9 mph - N/A   Clear
4:00 AM 47 °F - 35 °F 53% 29.91 in 2 mi East 2.2 mph - -  
4:00 AM 50.0 °F - 33.8 °F 54% 29.89 in 6.2 mi East 4.5 mph - N/A   Clear
4:30 AM 46.4 °F 44.4 °F 33.8 °F 62% 29.89 in 6.2 mi NE 4.5 mph - N/A   Clear
5:00 AM 46.4 °F 44.4 °F 33.8 °F 62% 29.92 in 6.2 mi East 4.5 mph - N/A   Clear
5:30 AM 44.6 °F - 35.6 °F 71% 29.92 in 6.2 mi Calm Calm - N/A   Clear
6:00 AM 44.6 °F - 33.8 °F 66% 29.95 in 6.2 mi Calm Calm - N/A   Clear
6:30 AM 46.4 °F 44.4 °F 33.8 °F 62% 29.95 in 6.2 mi NE 4.5 mph - N/A   Clear
7:00 AM 47 °F - 35 °F 53% 29.96 in 2 mi East 6.7 mph - -  
7:00 AM 46.4 °F 43.0 °F 33.8 °F 62% 29.95 in 6.2 mi ENE 6.7 mph - N/A   Clear
7:30 AM 46.4 °F 44.4 °F 33.8 °F 62% 29.95 in 6.2 mi ENE 4.5 mph - N/A   Clear
8:00 AM 44.6 °F 42.3 °F 33.8 °F 66% 29.95 in 6.2 mi NE 4.5 mph - N/A   Clear
8:30 AM 46.4 °F 43.0 °F 33.8 °F 62% 29.95 in 6.2 mi NE 6.7 mph - N/A   Clear
9:00 AM 44.6 °F - 33.8 °F 66% 29.98 in 6.2 mi WSW 2.2 mph - N/A   Clear
9:30 AM 46.4 °F - 35.6 °F 66% 29.98 in 6.2 mi Calm Calm - N/A   Clear
10:00 AM 49 °F - 37 °F 52% 29.99 in 12 mi East 6.7 mph - -  
10:00 AM 50.0 °F - 35.6 °F 58% 29.98 in 6.2 mi ENE 11.2 mph - N/A   Clear
10:30 AM 55.4 °F - 33.8 °F 44% 29.98 in 6.2 mi ENE 8.9 mph - N/A   Clear
11:00 AM 57.2 °F - 35.6 °F 44% 29.98 in 6.2 mi East 11.2 mph - N/A   Clear
11:30 AM 59.0 °F - 33.8 °F 39% 29.98 in 6.2 mi East 8.9 mph - N/A   Partly Cloudy
12:00 PM 62.6 °F - 32.0 °F 32% 29.98 in 6.2 mi SE 8.9 mph 15.7 mph N/A   Scattered Clouds
12:30 PM 62.6 °F - 33.8 °F 34% 29.98 in 6.2 mi SE 11.2 mph 20.1 mph N/A   Scattered Clouds
1:00 PM 63 °F - 35 °F 23% 30.01 in 12 mi SE 8.9 mph - -   Mostly Cloudy
1:00 PM 62.6 °F - 32.0 °F 32% 29.98 in 6.2 mi SSE 11.2 mph - N/A   Mostly Cloudy
1:30 PM 62.6 °F - 32.0 °F 32% 29.98 in 6.2 mi SSE 13.4 mph 22.4 mph N/A   Scattered Clouds
2:00 PM 62.6 °F - 35.6 °F 37% 30.01 in 6.2 mi SSE 13.4 mph - N/A   Partly Cloudy
2:30 PM 62.6 °F - 33.8 °F 34% 30.01 in 6.2 mi SSE 13.4 mph 20.1 mph N/A   Partly Cloudy
3:00 PM 62.6 °F - 32.0 °F 32% 29.98 in 6.2 mi SSE 13.4 mph 20.1 mph N/A   Partly Cloudy
3:30 PM 60.8 °F - 33.8 °F 36% 30.01 in 6.2 mi SSE 15.7 mph - N/A   Partly Cloudy
4:00 PM 62 °F - 39 °F 31% 30.01 in 12 mi SSE 8.9 mph - -   Scattered Clouds
4:00 PM 62.6 °F - 33.8 °F 34% 30.01 in 6.2 mi SSE 11.2 mph 17.9 mph N/A   Partly Cloudy
4:30 PM 60.8 °F - 35.6 °F 39% 30.01 in 6.2 mi SSE 11.2 mph 17.9 mph N/A   Partly Cloudy
5:00 PM 60.8 °F - 35.6 °F 39% 30.01 in 6.2 mi SSE 11.2 mph - N/A   Scattered Clouds
5:30 PM 60.8 °F - 33.8 °F 36% 30.01 in 6.2 mi SE 11.2 mph 17.9 mph N/A   Scattered Clouds
6:00 PM 59.0 °F - 35.6 °F 42% 30.01 in 6.2 mi SSE 8.9 mph - N/A   Scattered Clouds
6:30 PM 57.2 °F - 35.6 °F 44% 30.01 in 6.2 mi East 4.5 mph - N/A   Scattered Clouds
7:00 PM 57 °F - 39 °F 40% 30.04 in 12 mi SE 2.2 mph - -   Mostly Cloudy
7:00 PM 57.2 °F - 35.6 °F 44% 30.04 in 5.6 mi NE 2.2 mph - N/A   Mostly Cloudy
7:30 PM 55.4 °F - 35.6 °F 47% 30.04 in 6.2 mi NNE 2.2 mph - N/A   Mostly Cloudy
8:00 PM 53.6 °F - 39.2 °F 58% 30.04 in 3.7 mi NW 4.5 mph - N/A   Overcast
8:30 PM 55.4 °F - 39.2 °F 54% 30.04 in 6.2 mi North 4.5 mph - N/A   Overcast
9:00 PM 55.4 °F - 35.6 °F 47% 30.04 in 4.3 mi ENE 6.7 mph - N/A   Overcast
9:30 PM 53.6 °F - 37.4 °F 54% 30.04 in 5.6 mi East 11.2 mph - N/A   Overcast
10:00 PM 54 °F - 39 °F 45% 30.04 in 2 mi West 4.5 mph - -   Mostly Cloudy
10:00 PM 53.6 °F - 37.4 °F 54% 30.04 in 5.6 mi SW 2.2 mph - N/A   Mostly Cloudy
10:30 PM 51.8 °F - 41.0 °F 67% 30.04 in 6.2 mi WNW 6.7 mph - N/A   Mostly Cloudy
11:00 PM 53.6 °F - 41.0 °F 62% 30.06 in 6.2 mi NNW 6.7 mph - N/A   Overcast
11:30 PM 53.6 °F - 39.2 °F 58% 30.06 in 6.2 mi NW 2.2 mph - N/A   Overcast